Overview Statistics Trail Chart Weather Telemetry Raw packets
 

This is the latest recevied weather packets stored in our database for station/object WX0ABE-13. If no packets are shown the sender has not sent any weather packets the latest 10 day(s).

<< 93 94 95 96 97 98 99 >>
Time Temp. Humidity Pressure Rain* Wind** Luminosity Snow
1787668293 21.67° C 73% 1024 hPa 0 mm - 149 W/m² -
1787667988 21.67° C 73% 1023.9 hPa 0 mm - 81 W/m² -
1787667684 21.11° C 73% 1023.9 hPa 0 mm - 106 W/m² -
1787667379 21.11° C 76% 1023.8 hPa 0 mm - 70 W/m² -
1787667074 20.56° C 75% 1024 hPa 0 mm - 60 W/m² -
1787666770 20.56° C 76% 1023.6 hPa 0 mm - 54 W/m² -
1787666469 20.56° C 76% 1023.8 hPa 0 mm - 54 W/m² -
1787666164 20° C 77% 1023.6 hPa 0 mm - 55 W/m² -
1787665860 20° C 77% 1023.5 hPa 0 mm - 59 W/m² -
1787665556 20° C 78% 1023.5 hPa 0 mm - 89 W/m² -
1787665249 19.44° C 79% 1023.6 hPa 0 mm - 87 W/m² -
1787664947 19.44° C 80% 1023.6 hPa 0 mm - 61 W/m² -
1787664642 18.89° C 80% 1023.5 hPa 0 mm - 68 W/m² -
1787664337 18.89° C 80% 1023.6 hPa 0 mm - 57 W/m² -
1787664036 18.89° C 80% 1023.2 hPa 0 mm - 51 W/m² -
1787663731 18.89° C 81% 1023.2 hPa 0 mm - 37 W/m² -
1787663426 18.33° C 82% 1023.1 hPa 0 mm - 39 W/m² -
1787663122 18.33° C 83% 1023.2 hPa 0 mm - 36 W/m² -
1787662818 17.78° C 83% 1023.2 hPa 0 mm - 28 W/m² -
1787662517 17.78° C 83% 1023.3 hPa 0 mm - 24 W/m² -
1787662213 17.78° C 83% 1023.3 hPa 0 mm - 19 W/m² -
1787661909 17.78° C 83% 1023.1 hPa 0 mm - 16 W/m² -
1787661608 17.78° C 83% 1023.1 hPa 0 mm - 13 W/m² -
1787661308 17.78° C 83% 1022.8 hPa 0 mm - 11 W/m² -
1787661007 18.33° C 83% 1022.9 hPa 0 mm - 9 W/m² -

* Rain latest hour (hover to see other rain measurements)
** Current wind speed in m/s (hover to see current wind gust speed)